{"data":{"norad_id":69542,"epoch":"2026-09-19T10:31:24.976992Z","epoch_age_seconds":125120,"freshness":"FRESH","line1":"1 69542U 26134E   26262.43848353  .00002649  00000+0  17262-3 0  9999","line2":"2 69542  97.6963 332.9824 0020537 311.1620  48.7836 15.08645145 14527","mean_motion":15.08645145,"eccentricity":0.0020537,"inclination_deg":97.6963,"raan_deg":332.9824,"arg_perigee_deg":311.162,"mean_anomaly_deg":48.7836,"bstar":0.00017262,"rev_number":1452,"period_min":95.449881290673,"perigee_km":526.13057259305,"apogee_km":554.54752110788,"semimajor_km":6918.4760468505,"source":"CELESTRAK","updated_at":"2026-09-20T09:00:24.949522Z"}}